Location: Abyssinia Baptist Church
(32.7840°N, 96.7578°W)
Time: 05:45:49
(UTC+00:00)

H-2A R/B - Pass Details

Date: 30 June 2022
Orbit: 576 x 652 km, 98.5° (Epoch: 17 August)

Event Time Altitude Azimuth Distance (km) Brightness Sun altitude
Rises 04:00:31 0° 345° (NNW) 2,929 6.7 -23.6°
Reaches altitude 10° 04:04:36 10° 307° (NW) 2,034 5.7 -24.1°
Maximum altitude 04:05:31 11° 295° (WNW) 1,997 5.5 -24.2°
Drops below altitude 10° 04:06:27 10° 282° (WNW) 2,038 5.3 -24.3°
Sets 04:10:35 0° 244° (WSW) 2,955 5.7 -24.8°
